Regional Weather Roundup
Issued by NWS Cleveland, OH

Home | Current Version | Previous Version | Graphics & Text | Print | Product List | Glossary On
Versions: 1 2 3 4 5 6 7 8 9 10 11 12 13 14 15 16 17 18 19 20 21 22 23 24 25 26 27 28 29 30 31 32 33 34 35 36 37 38 39 40 41 42 43 44 45 46 47 48 49 50
000
ASUS41 KCLE 181410
RWRCLE
OHIO REGIONAL WEATHER ROUNDUP
NATIONAL WEATHER SERVICE CLEVELAND, OH
900 AM EST THU JAN 18 2018

NOTE: "FAIR" INDICATES FEW OR NO CLOUDS BELOW 12,000 FEET WITH NO
SIGNIFICANT WEATHER AND/OR OBSTRUCTIONS TO VISIBILITY.

OHZ001>008-015>018-024>027-034-035-043-044-181500-
   NORTHWEST OHIO

CITY           SKY/WX    TMP DP  RH WIND       PRES   REMARKS
DEFIANCE       FAIR      15   6  67 SW10      30.16F WCI   2
FINDLAY        FAIR      17   6  62 SW16G25   30.18S WCI   2
TOLEDO EXPRESS FAIR      15   9  76 SW12      30.14F WCI   2
TOLEDO EXEC    FAIR      16   8  71 SW20G26   30.15F WCI  -1
LIMA           FAIR      15   7  70 SW17      30.19R WCI  -1
$$

OHZ009>014-019>023-028>033-038-089-181500-
   NORTHEAST OHIO

CITY           SKY/WX    TMP DP  RH WIND       PRES   REMARKS
CLE-HOPKINS    FAIR      16   6  65 SW14G22   30.20S WCI   2
CLE-LAKEFRONT  FAIR      17   6  62 SW21G28   30.17F WCI   0
CUY CO. ARPT   SUNNY     18   5  57 SW14G20   30.15F WCI   4
LORAIN-ELYRIA  FAIR      14   3  61 W16       30.18R WCI  -2
ASHTABULA      FAIR      12   5  73 SW12      30.15R WCI  -2
AKRON-CANTON   FAIR      10   3  73 SW13      30.17S WCI  -5
WOOSTER        FAIR      12   5  73 SW10      30.19R WCI  -1
MANSFIELD      FAIR      14   5  67 SW15G24   30.17R WCI  -1
YOUNGSTOWN     FAIR      10   4  76 S8        30.16R WCI  -2
$$

OHZ042-051>053-060>062-070>072-077>081-181500-
  SOUTHWEST OHIO

CITY           SKY/WX    TMP DP  RH WIND       PRES   REMARKS
CINC-COVINGTON FAIR      11   8  88 SW14      30.35R WCI  -5
CINC-LUNKEN    FAIR      12   7  80 S9        30.41S WCI   0
HAMILTON       FAIR      15   8  73 MISG      30.36F
DAYTON         FAIR      11   7  84 SW18      30.26F WCI  -7
WRIGHT-PAT AFB FAIR      13   4  66 SW16      30.28F WCI  -3
DAYTON GENERAL FAIR      14   7  73 SW10G18   30.29F WCI   1
WILMINGTON     FAIR      10   7  87 SW16      30.29F WCI  -7
$$

OHZ036-037-039>041-045>050-054>059-063>069-073>076-082>088-181500-
  CENTRAL AND SOUTHEAST OHIO

CITY           SKY/WX    TMP DP  RH WIND       PRES   REMARKS
COLUMBUS       FAIR      11   6  81 S10       30.28F WCI  -3
OSU AIRPORT    FAIR      11   6  81 S9        30.26S WCI  -2
BOLTON FIELD   SUNNY     10   7  85 SW14      30.27F WCI  -5
RICKENBACK AFB FAIR      11   6  79 S16       30.30S WCI  -6
NEWARK         FAIR      13   5  70 SW9G18    30.27S WCI   1
MARION         FAIR      13   5  70 SW12      30.22R WCI  -1
LANCASTER      FAIR      12   5  73 S12       30.30S WCI  -2
ZANESVILLE     FAIR      10   4  76 SW12      30.29S WCI  -5
NEW PHILLY     NOT AVBL
$$




USA.gov is the U.S. government's official web portal to all federal, state and local government web resources and services.